{"data":{"norad_id":56903,"epoch":"2026-05-25T00:02:13.509600Z","epoch_age_seconds":71445,"freshness":"FRESH","line1":"1 56903U 23083AD  26145.00154525 -.00000515  00000+0 -91988-5 0  9991","line2":"2 56903  43.0058  10.6076 0001187 263.7863  96.2853 15.27572421163455","mean_motion":15.27572421,"eccentricity":0.0001187,"inclination_deg":43.0058,"raan_deg":10.6076,"arg_perigee_deg":263.7863,"mean_anomaly_deg":96.2853,"bstar":-9.1988e-6,"rev_number":16345,"period_min":94.267216415005,"perigee_km":482.2573649026,"apogee_km":483.88621586943,"semimajor_km":6861.208790386,"source":"CELESTRAK","updated_at":"2026-05-25T13:38:18.201260Z"}}